map of RES home
Great Circle Mapper logo
RES - Airport
Location
City:  Resistencia, Argentina
ICAO:SARE
IATA:RES

Details
Type:Airport (Aerodrome, Airfield)
Use:Public/Civil
Latitude:2727'00"S (-27.449985)
Longitude:5903'22"W (-59.056124)
Datum:WGS 1984
Elevation:173 ft (53 m)
Variation:11.77W (WMM2015 magnetic declination)
-0.18 annual change
Runways:1
Longest:9088 × 147 ft (2770 × 45 m), paved

Time
Time Zone:UTC-3
Local Time:

Weather
METAR:SARE 310900Z 29002KT 2000 BR NSC 07/06 Q1015
TAF:SARE 302300Z 3100/3124 27005KT CAVOK TX21/3118Z TN08/3110Z
BECMG 3104/3106 5000 BR NSC
BECMG 3112/3114 9999 SCT020

Related Locations
Nearby:
Farthest:WNZ: 12441 mi / 20021 km
Wenzhou [Intl], 33, CN

Find:

   beyond  
but within

Other Information
Maps:
NOTAMs:
Links:
Sources:

  
flag of Argentina   

Sectional Chart

Flight Planning
at skyvector.com

Satellite Image

Google Maps Satellite view

 

Copyright © 2004-2016 Karl L. Swartz. All rights reserved.
The Great Circle Mapper name and logo are trademarks of the Great Circle Mapper.
All other trademarks mentioned herein belong to their respective owners.
Please see credits for attibutions and further copyright information.

  Follow gcmap on Facebook Follow gcmap on Twitter Follow gcmap on Google+ GCmap on LinkedIn

hCard Microformat

Geo Microformat